Region 1-4A Championships 2019 vs Region 1-4A Pre-Region 2019

Aggregate Data Points
Difference This Meet That Meet
Overall Athletes +14 196 182
Overall Average -3:54.02 22:42.88 26:36.90
1st-10th Place -1:27.22 17:13.23 18:40.45
1st-25th Place -1:40.23 17:59.79 19:40.03
1st-50th Place -1:50.51 18:52.80 20:43.31
1st-100th Place -2:24.36 20:12.91 22:37.27
Common Athletes -- -- 169
Ran Faster 167 168 1
Ran Season Best 86 87 1
Average Time -4:03.48 22:26.41 26:29.89
Median Time -3:15.11 22:02.83 25:17.94
Middle 80% Times -3:40.77 22:20.06 26:00.84
Top 10% Times -1:35.68 17:36.88 19:12.56
Top 25% Times -1:46.05 18:41.44 20:27.48
Top 50% Times -2:12.07 19:59.29 22:11.36
Bottom 50% Times -5:52.02 24:37.70 30:29.72
Bottom 25% Times -7:35.78 26:32.71 34:08.49
Bottom 10% Times -9:45.72 28:21.04 38:06.76
Average Difference -4:03.48 -- --
Median Difference -4:45.34 -- --
Middle 80% Difference -3:36.64 -- --
Top 10% Difference -1:29.32 -- --
Top 50% Difference -2:03.46 -- --
Top 25% Difference -1:37.24 -- --
Top 50% Difference -2:03.46 -- --
Bottom 50% Difference -6:03.99 -- --
Bottom 25% Difference -8:05.86 -- --
Bottom 10% Difference -10:30.65 -- --

Performances of Common Athletes
Athlete Team Difference This Meet That Meet
Seth Sharpe Wren -1:17.17 15:51.81 17:08.98
Mismeh Balawi Daniel -54.65 15:57.30 16:51.95
Jon Hopkins Walhalla -1:07.38 17:01.57 18:08.95
Elijah Poore Walhalla -1:31.23 17:13.08 18:44.31
Nate Lockhart Daniel -1:51.10 17:27.21 19:18.31
Brady Stone Palmetto -2:04.20 17:33.89 19:38.09
Drew Alexander Wren -1:41.51 17:41.12 19:22.63
William Wright Wren -1:30.20 17:44.71 19:14.91
Chance Bloodworth Walhalla -1:12.28 17:48.96 19:01.24
Austin Davenport Belton-Honea Path -2:20.14 17:52.67 20:12.81
Carson Goodell Wren -2:42.79 17:55.57 20:38.36
Jason Overfelt Walhalla -2:05.05 17:57.32 20:02.37
Sammy Miller Daniel -2:17.67 17:58.40 20:16.07
Kaleab Stoughtenger Palmetto -2:31.43 18:16.94 20:48.37
Grady Clark Wren -1:48.30 18:18.29 20:06.59
Dylan Bray Pickens -1:36.86 18:19.48 19:56.34
Gary Amador Walhalla -1:38.62 18:28.62 20:07.24
Thomas Nix Walhalla -52.91 18:30.85 19:23.76
Tyler Peace Daniel -1:13.65 18:31.95 19:45.60
Jackson Brooks Palmetto -1:59.02 18:44.33 20:43.35
Thaddaeus Bertoni Belton-Honea Path -3:35.03 18:46.45 22:21.48
Jackson Masters Pickens -2:46.77 18:54.20 21:40.97
Mari Cagle Lockhart Daniel -33.22 18:56.23 19:29.45
Levi Shelton Pickens -2:59.48 19:00.14 21:59.62
Grant Young Wren -2:27.93 19:03.77 21:31.70
Sam Brittain Daniel -1:43.87 19:09.91 20:53.78
Alex Buckner Walhalla -1:51.00 19:10.05 21:01.05
Keaton Moore Pickens -1:45.15 19:15.09 21:00.24
Emily Arenas Walhalla -1:54.89 19:15.33 21:10.22
Jacob Buck Daniel -3:13.73 19:17.06 22:30.79
Josiah Akridge Walhalla -1:08.34 19:23.03 20:31.37
Noah Hubbard Walhalla -3:04.58 19:35.20 22:39.78
Emory Burkett Palmetto -3:00.67 19:36.92 22:37.59
Landon Mayfield Wren -3:59.81 19:38.67 23:38.48
Will Herden Daniel -38.21 19:44.40 20:22.61
Ally Wilson Daniel -1:08.73 19:48.07 20:56.80
Nat Bruss Wren -1:28.83 19:52.10 21:20.93
Kaden Reeder Walhalla -3:17.07 19:53.03 23:10.10
Braeden Pelletier Walhalla -56.75 19:56.51 20:53.26
Savannah Rex Walhalla -2:04.72 19:59.20 22:03.92
Cason Young Belton-Honea Path -1:20.10 19:59.85 21:19.95
Ryan Nash Daniel -53.70 20:00.96 20:54.66
Matthew Mitchell Pickens -2:16.68 20:11.50 22:28.18
Madison Crumley Palmetto -1:06.23 20:12.27 21:18.50
Liam Chandler Daniel -2:43.95 20:12.87 22:56.82
Elise Matthews Wren -2:00.77 20:15.95 22:16.72
Aidan Callahan Walhalla -2:50.38 20:18.81 23:09.19
Caleb Owen Walhalla -3:33.63 20:19.18 23:52.81
Clayton Payne Pickens -5:15.93 20:23.91 25:39.84
Jonathan Hayden Palmetto -4:49.20 20:26.90 25:16.10
David McNutt Palmetto -1:57.54 20:32.34 22:29.88
Brooklyn Williamson Belton-Honea Path -4:45.34 20:32.60 25:17.94
Kaleb Evans Walhalla -1:15.32 20:40.72 21:56.04
Benjamin Espinosa Walhalla -1:13.10 20:43.63 21:56.73
Hagan Wilson Wren -1:48.83 20:49.75 22:38.58
Gage Whitfield Belton-Honea Path -3:37.99 21:08.38 24:46.37
Jesse Caldwell Wren -1:28.52 21:12.52 22:41.04
Haley Culver Wren -4:16.59 21:19.15 25:35.74
Maleah Balawi Daniel -2:58.98 21:19.47 24:18.45
Tanner Knight Belton-Honea Path -4:10.31 21:19.81 25:30.12
Colin Porter Palmetto -1:30.62 21:22.20 22:52.82
Rylee Elrod Palmetto -3:52.56 21:24.05 25:16.61
Will Grant Walhalla -1:35.12 21:32.42 23:07.54
Parker Hendricks Pickens -4:23.44 21:33.96 25:57.40
Preston McCreary Palmetto -3:12.74 21:35.26 24:48.00
Bristen Havird Wren -3:39.03 21:35.97 25:15.00
Blake Halfacre Daniel -26.57 21:38.55 22:05.12
Morgan Roberts Palmetto -6.34 21:38.59 21:44.93
Joeli Hayden Palmetto -2:33.36 21:40.30 24:13.66
Katy Lepper Wren -3:59.00 21:40.70 25:39.70
Evan Scogins Palmetto -2:19.26 21:41.38 24:00.64
Natalie Boggs Belton-Honea Path -7:21.56 21:42.06 29:03.62
Mac Martin Daniel -3:32.62 21:42.65 25:15.27
Matthew Owens Palmetto +2:59.66 24:42.64 21:42.98
Nate Robertson Wren -2:13.78 21:44.49 23:58.27
Janey Dixon Wren -1:56.16 21:46.34 23:42.50
Audrey Hylkema Daniel -3:16.22 21:47.11 25:03.33
Stryder Tempest Walhalla -2:40.84 21:48.89 24:29.73
Emma Dixon Wren -3:10.76 21:49.04 24:59.80
Hagan Chemelar Walhalla -3:05.38 21:49.81 24:55.19
Hudson Salinas Pickens -6:46.76 21:53.37 28:40.13
Claire Mattox Walhalla -7:39.05 21:58.22 29:37.27
Henru Greyling Pickens -8:06.62 21:58.53 30:05.15
Joseph Lucas Wren -2:49.28 22:00.15 24:49.43
Ashby Williams Daniel -2:50.68 22:02.58 24:53.26
Savannah Siegler Walhalla -4:35.63 22:02.83 26:38.46
McKinley Doll Walhalla -3:20.40 22:05.27 25:25.67
Hayley Blanton Wren -1:27.77 22:07.25 23:35.02
Mason Moore Palmetto -5:34.25 22:11.01 27:45.26
Kayla Trussell Walhalla -9:12.80 22:19.92 31:32.72
Ashlyn Zangara Daniel -2:16.01 22:22.24 24:38.25
Austin Lanning Pickens -11:06.53 22:23.90 33:30.43
Kristina Loftus Walhalla -39.65 22:24.05 23:03.70
Jordan King Daniel -1:16.39 22:27.70 23:44.09
Grayson Gillespie Wren -2:18.56 22:31.41 24:49.97
Austin Towery Palmetto -5:56.61 22:32.94 28:29.55
Matthew Buckley Pickens -2:50.08 22:36.96 25:27.04
Abby Thorsland Walhalla -42.65 22:38.92 23:21.57
Jack Osborne Daniel -2:30.34 22:39.77 25:10.11
Matthew Penland Walhalla -6:02.57 22:48.36 28:50.93
Meg Kennedy Daniel -3:04.35 22:49.45 25:53.80
Emma Thorsland Walhalla -2:38.88 22:52.34 25:31.22
Ashby Winner Palmetto -5:06.58 22:53.12 27:59.70
Allison McCauley Palmetto -1:52.17 22:56.42 24:48.59
Ryan Raab Walhalla -3:06.99 23:00.21 26:07.20
Emily Bruno Belton-Honea Path -7:17.59 23:00.84 30:18.43
Emma Austin Palmetto -4:01.26 23:12.27 27:13.53
Pelletier Winkopp Wren -2:34.80 23:12.68 25:47.48
Hannah Brown Daniel -1:23.86 23:13.66 24:37.52
Hannah Dorn Wren -2:18.22 23:15.29 25:33.51
Cody Arnold Belton-Honea Path -6:13.69 23:20.29 29:33.98
David White Pickens -3:25.39 23:20.40 26:45.79
Jackson Rex Walhalla -4:39.59 23:22.93 28:02.52
Colby Winner Palmetto -5:31.02 23:26.01 28:57.03
Stella Mocko Daniel -2:56.51 23:32.36 26:28.87
Baptiste Perdrix Daniel -1:43.81 23:43.97 25:27.78
Nimasha Jayasinghe Daniel -5:19.38 23:50.48 29:09.86
CLaire Manson Daniel -5:51.02 23:52.36 29:43.38
Reese Livingston Daniel -7:16.29 24:03.45 31:19.74
Nate Duncan Walhalla -4:53.69 24:05.26 28:58.95
Catherine Cory Daniel -4:25.73 24:14.63 28:40.36
Katelyn Klement Walhalla -2:44.55 24:18.43 27:02.98
Brooklyn Ricker Walhalla -5:20.54 24:18.92 29:39.46
Scott Queen Palmetto -5:46.38 24:23.52 30:09.90
Anna Ball Daniel -2:21.73 24:28.43 26:50.16
Jeremiah Lopez Palmetto -5:41.79 24:29.19 30:10.98
Noah Warwick Daniel -8:54.38 24:31.28 33:25.66
Olivia Durham Palmetto -2:46.66 24:35.00 27:21.66
Izabela Smith Palmetto -7:09.50 24:40.27 31:49.77
Aiden Smith Walhalla -6:56.94 24:40.69 31:37.63
Weston Lewis Walhalla -2:39.94 24:43.51 27:23.45
Emma Macrae Daniel -11:39.79 24:46.53 36:26.32
Sydney Akers Daniel -2:07.66 24:52.53 27:00.19
Madi Abernethy Daniel -9:14.66 24:55.83 34:10.49
Chris Kohlmayer Belton-Honea Path -4:38.90 24:58.49 29:37.39
Hannah Turner Daniel -5:08.49 25:08.16 30:16.65
Shayna Cox Palmetto -2:45.53 25:11.69 27:57.22
Kenzie Reeder Walhalla -7:45.89 25:12.17 32:58.06
Holly Newman Pickens -2:46.53 25:13.10 27:59.63
Rj Woodard Belton-Honea Path -9:21.62 25:17.13 34:38.75
Warren Holcombe Wren -5:47.80 25:18.90 31:06.70
Christina Giard Daniel -4:08.97 25:20.06 29:29.03
Rayne Dove Belton-Honea Path -12:59.28 25:28.75 38:28.03
Jack Roberson Wren -5:35.84 25:30.25 31:06.09
Aiyana Smith Palmetto -6:09.03 25:48.27 31:57.30
Ella Frailey Palmetto -11:57.97 25:53.78 37:51.75
Jonathan Campbell Palmetto -4:49.50 25:55.32 30:44.82
Sarah Jackson Walhalla -5:15.97 25:56.96 31:12.93
Judd Nickel Belton-Honea Path -4:39.02 26:14.76 30:53.78
Amaya Pendleton Palmetto -13:00.03 26:18.38 39:18.41
Emma Moore Daniel -7:20.46 26:21.01 33:41.47
Amber Clark Pickens -3:34.03 26:24.79 29:58.82
Kristen Smith Pickens -6:00.60 26:29.34 32:29.94
Brianna Henderson Palmetto -8:44.30 26:29.82 35:14.12
Christian Barth Palmetto -7:04.45 26:48.28 33:52.73
Ceana Snelgrove Pickens -5:44.80 26:52.03 32:36.83
Leslie Terrazas Politron Palmetto -17:07.98 26:58.81 44:06.79
Jadyn Myers Daniel -8:39.98 27:04.57 35:44.55
Georgia Dodson Daniel -7:28.86 27:19.24 34:48.10
Rachel Barth Palmetto -10:03.87 27:20.15 37:24.02
Maggie Simmons Daniel -8:37.64 27:30.85 36:08.49
Isaiah Pendleton Palmetto -5:54.66 27:56.07 33:50.73
Chloe Luffman Belton-Honea Path -16:12.26 28:17.07 44:29.33
Jane Laurence Daniel -1:11.84 28:20.77 29:32.61
Atyona Lambright Pickens -17.24 28:57.59 29:14.83
Clayton Rakey Palmetto -4:42.38 29:45.57 34:27.95
Max Manson Daniel -8:10.95 30:04.11 38:15.06
Madilyn Ashley Belton-Honea Path -11:44.83 30:28.53 42:13.36
Savanna Arnold Belton-Honea Path -8:54.60 35:14.85 44:09.45